Dades meteomassalio
Diari Summary for Maig 22, 2017 Units:  Metric    English   Both
« Previous Day
Next Day »
Diari Semanal Mensual Anual Personalitzat
  Maxima: Minima: Mijana:
Temperatura: -17.8 °C -10.3 °C -5.8 °C
Rosada: -17.8 °C -11.8 °C -10.9 °C
Humitat: Humidity % 34 % 58 %
Velocitat del vent: 0 km/h 0 km/h 8.2 km/h
Racha vent: 0 km/h - -
Vent:- - East
Pressio: 0 hPa 34303.6 hPa -
Pluja: 0 mm    
Historical Graphs
 
 
Tabular Data for Maig 22, 2017
Time Temperature Dew Point Pressure Wind Wind Speed Wind Gust Humidity Rainfall Rate (Hourly) solar Conditions
-17.8 °C -17.8 °C 0 hPa Calm     Humidity % 0 mm SolarRadiationWatts/m^2 W/m2 Conditions
00:01 -7.5 °C -11.2 °C 34384.8 hPa Calm     65 % 0 mm 0.0 W/m2 CLR
00:06 -7.6 °C -11.3 °C 34384.8 hPa Calm     65 % 0 mm 0.0 W/m2 CLR
00:11 -7.6 °C -11.3 °C 34384.8 hPa East 9 km/h 9 km/h 65 % 0 mm 0.0 W/m2 CLR
00:16 -7.6 °C -11.2 °C 34384.8 hPa ENE 3.1 km/h 3.1 km/h 66 % 0 mm 0.0 W/m2 CLR
00:21 -7.7 °C -11.3 °C 34384.8 hPa Calm     66 % 0 mm 0.0 W/m2 CLR
00:26 -7.8 °C -11.2 °C 34384.8 hPa ENE 5.1 km/h 5.1 km/h 67 % 0 mm 0.0 W/m2 CLR
00:31 -7.9 °C -11.2 °C 34371.3 hPa ENE 5.1 km/h 5.1 km/h 68 % 0 mm 0.0 W/m2 CLR
00:36 -7.9 °C -11.2 °C 34371.3 hPa Calm     68 % 0 mm 0.0 W/m2 CLR
00:41 -7.9 °C -11.3 °C 34384.8 hPa Calm     68 % 0 mm 0.0 W/m2 CLR
00:46 -7.9 °C -11.3 °C 34371.3 hPa Calm     68 % 0 mm 0.0 W/m2 CLR
00:51 -7.9 °C -11.3 °C 34371.3 hPa Calm     68 % 0 mm 0.0 W/m2 CLR
00:56 -8 °C -11.2 °C 34361.1 hPa Calm     69 % 0 mm 0.0 W/m2 CLR
01:01 -8 °C -11.2 °C 34361.1 hPa Calm     69 % 0 mm 0.0 W/m2 CLR
01:06 -8 °C -11.2 °C 34361.1 hPa Calm     69 % 0 mm 0.0 W/m2 CLR
01:11 -8 °C -11.2 °C 34361.1 hPa Calm     69 % 0 mm 0.0 W/m2 CLR
01:16 -8 °C -11.2 °C 34347.6 hPa Calm     69 % 0 mm 0.0 W/m2 CLR
01:21 -8 °C -11.2 °C 34347.6 hPa Calm     69 % 0 mm 0.0 W/m2 CLR
01:26 -8.1 °C -11.3 °C 34347.6 hPa Calm     69 % 0 mm 0.0 W/m2 CLR
01:31 -8.1 °C -11.2 °C 34361.1 hPa Calm     70 % 0 mm 0.0 W/m2 CLR
01:36 -8.2 °C -11.2 °C 34361.1 hPa Calm     70 % 0 mm 0.0 W/m2 CLR
01:41 -8.2 °C -11.2 °C 34361.1 hPa Calm     71 % 0 mm 0.0 W/m2 CLR
01:46 -8.2 °C -11.2 °C 34361.1 hPa Calm     71 % 0 mm 0.0 W/m2 CLR
01:51 -8.3 °C -11.2 °C 34361.1 hPa Calm     71 % 0 mm 0.0 W/m2 CLR
01:56 -8.2 °C -11.2 °C 34347.6 hPa Calm     71 % 0 mm 0.0 W/m2 CLR
02:01 -8.2 °C -11.1 °C 34361.1 hPa Calm     72 % 0 mm 0.0 W/m2 CLR
02:06 -8.2 °C -11.1 °C 34347.6 hPa Calm     72 % 0 mm 0.0 W/m2 CLR
02:11 -8.2 °C -11.1 °C 34361.1 hPa Calm     72 % 0 mm 0.0 W/m2 CLR
02:16 -8.3 °C -11.2 °C 34361.1 hPa Calm     72 % 0 mm 0.0 W/m2 CLR
02:21 -8.3 °C -11.2 °C 34361.1 hPa Calm     72 % 0 mm 0.0 W/m2 CLR
02:26 -8.3 °C -11.2 °C 34347.6 hPa Calm     72 % 0 mm 0.0 W/m2 CLR
02:32 -8.3 °C -11.2 °C 34361.1 hPa Calm     72 % 0 mm 0.0 W/m2 CLR
02:37 -8.3 °C -11.2 °C 34347.6 hPa Calm     72 % 0 mm 0.0 W/m2 CLR
02:42 -8.4 °C -11.2 °C 34347.6 hPa Calm     72 % 0 mm 0.0 W/m2 CLR
02:47 -8.4 °C -11.1 °C 34347.6 hPa Calm     73 % 0 mm 0.0 W/m2 CLR
02:52 -8.4 °C -11.1 °C 34347.6 hPa Calm     73 % 0 mm 0.0 W/m2 CLR
02:57 -8.4 °C -11.2 °C 34347.6 hPa Calm     73 % 0 mm 0.0 W/m2 CLR
03:02 -8.4 °C -11.2 °C 34347.6 hPa Calm     73 % 0 mm 0.0 W/m2 CLR
03:07 -8.5 °C -11.2 °C 34347.6 hPa Calm     73 % 0 mm 0.0 W/m2 CLR
03:12 -8.5 °C -11.2 °C 34347.6 hPa Calm     73 % 0 mm 0.0 W/m2 CLR
03:17 -8.5 °C -11.2 °C 34337.4 hPa Calm     73 % 0 mm 0.0 W/m2 CLR
03:22 -8.5 °C -11.2 °C 34337.4 hPa Calm     73 % 0 mm 0.0 W/m2 CLR
03:27 -8.6 °C -11.2 °C 34347.6 hPa Calm     74 % 0 mm 0.0 W/m2 CLR
03:32 -8.7 °C -11.2 °C 34337.4 hPa Calm     74 % 0 mm 0.0 W/m2 CLR
03:37 -8.7 °C -11.2 °C 34337.4 hPa Calm     75 % 0 mm 0.0 W/m2 CLR
03:42 -8.7 °C -11.2 °C 34337.4 hPa Calm     75 % 0 mm 0.0 W/m2 CLR
03:47 -8.7 °C -11.2 °C 34337.4 hPa Calm     75 % 0 mm 0.0 W/m2 CLR
03:52 -8.8 °C -11.1 °C 34337.4 hPa Calm     76 % 0 mm 0.0 W/m2 CLR
03:57 -8.8 °C -11.2 °C 34337.4 hPa Calm     76 % 0 mm 0.0 W/m2 CLR
04:02 -8.9 °C -11.2 °C 34337.4 hPa Calm     76 % 0 mm 0.0 W/m2 CLR
04:07 -8.9 °C -11.2 °C 34337.4 hPa Calm     77 % 0 mm 0.0 W/m2 CLR
04:12 -9 °C -11.2 °C 34337.4 hPa Calm     77 % 0 mm 0.0 W/m2 CLR
04:17 -9.1 °C -11.3 °C 34337.4 hPa Calm     77 % 0 mm 0.0 W/m2 CLR
04:22 -9.1 °C -11.2 °C 34347.6 hPa Calm     78 % 0 mm 0.0 W/m2 CLR
04:27 -9.1 °C -11.3 °C 34347.6 hPa Calm     77 % 0 mm 0.0 W/m2 CLR
04:32 -9.1 °C -11.3 °C 34361.1 hPa Calm     78 % 0 mm 0.0 W/m2 CLR
04:37 -9.2 °C -11.2 °C 34361.1 hPa Calm     79 % 0 mm 0.0 W/m2 CLR
04:42 -9.3 °C -11.3 °C 34361.1 hPa Calm     79 % 0 mm 0.0 W/m2 CLR
04:47 -9.3 °C -11.3 °C 34361.1 hPa Calm     79 % 0 mm 0.0 W/m2 CLR
04:52 -9.4 °C -11.4 °C 34361.1 hPa Calm     79 % 0 mm 0.0 W/m2 CLR
04:57 -9.5 °C -11.4 °C 34361.1 hPa Calm     80 % 0 mm 0.0 W/m2 CLR
05:02 -9.6 °C -11.5 °C 34361.1 hPa WNW 3.1 km/h 3.1 km/h 80 % 0 mm 0.0 W/m2 CLR
05:07 -9.6 °C -11.4 °C 34361.1 hPa Calm     81 % 0 mm 0.0 W/m2 CLR
05:12 -9.6 °C -11.5 °C 34361.1 hPa Calm     80 % 0 mm 0.0 W/m2 CLR
05:17 -9.6 °C -11.5 °C 34361.1 hPa Calm     80 % 0 mm 0.0 W/m2 CLR
05:22 -9.7 °C -11.5 °C 34361.1 hPa Calm     81 % 0 mm 0.0 W/m2 CLR
05:27 -9.7 °C -11.5 °C 34361.1 hPa Calm     81 % 0 mm 0.0 W/m2 CLR
05:32 -9.8 °C -11.5 °C 34361.1 hPa Calm     82 % 0 mm 0.0 W/m2 CLR
05:37 -9.9 °C -11.6 °C 34371.3 hPa Calm     82 % 0 mm 0.0 W/m2 CLR
05:42 -9.9 °C -11.6 °C 34371.3 hPa Calm     82 % 0 mm 0.0 W/m2 CLR
05:47 -9.9 °C -11.6 °C 34371.3 hPa Calm     82 % 0 mm 0.0 W/m2 CLR
05:52 -10.1 °C -11.6 °C 34371.3 hPa Calm     83 % 0 mm 0.0 W/m2 CLR
05:57 -10.1 °C -11.7 °C 34371.3 hPa Calm     83 % 0 mm 0.0 W/m2 CLR
06:02 -10.1 °C -11.6 °C 34371.3 hPa SW 9 km/h 9 km/h 84 % 0 mm 0.0 W/m2 CLR
06:03 -10.1 °C -11.6 °C 34371.3 hPa SW 9 km/h   84 % 0 mm 0.0 W/m2 CLR
06:08 -10.1 °C -11.6 °C 34384.8 hPa Calm     84 % 0 mm 0.0 W/m2 CLR
06:13 -10.1 °C -11.6 °C 34384.8 hPa Calm     83 % 0 mm 0.0 W/m2 CLR
06:18 -10.1 °C -11.7 °C 34384.8 hPa Calm     83 % 0 mm 0.0 W/m2 CLR
06:23 -10.1 °C -11.6 °C 34384.8 hPa Calm     84 % 0 mm 0.0 W/m2 CLR
06:28 -10.2 °C -11.6 °C 34384.8 hPa Calm     84 % 0 mm 0.0 W/m2 OVC
06:33 -10.2 °C -11.6 °C 34384.8 hPa Calm     84 % 0 mm 0.0 W/m2 OVC
06:38 -10.2 °C -11.8 °C 34395 hPa Calm     83 % 0 mm 5.0 W/m2 OVC
06:43 -10.3 °C -11.8 °C 34405.1 hPa Calm     84 % 0 mm 9.0 W/m2 BKN
06:48 -10.3 °C -11.8 °C 34405.1 hPa WSW 9 km/h 9 km/h 84 % 0 mm 12.0 W/m2 BKN
06:53 -10.2 °C -11.6 °C 34418.7 hPa Calm     85 % 0 mm 18.0 W/m2 BKN
06:58 -10.1 °C -11.5 °C 34418.7 hPa Calm     85 % 0 mm 25.0 W/m2 BKN
07:03 -10.1 °C -11.4 °C 34405.1 hPa SW 3.1 km/h 3.1 km/h 85 % 0 mm 28.0 W/m2 BKN
07:08 -10 °C -11.6 °C 34405.1 hPa Calm     83 % 0 mm 28.0 W/m2 BKN
07:13 -10.1 °C -11.6 °C 34405.1 hPa Calm     84 % 0 mm 32.0 W/m2 BKN
07:18 -10 °C -11.4 °C 34405.1 hPa Calm     85 % 0 mm 37.0 W/m2 BKN
07:23 -9.9 °C -11.4 °C 34418.7 hPa Calm     84 % 0 mm 47.0 W/m2 SCT
07:28 -9.9 °C -11.4 °C 34405.1 hPa Calm     84 % 0 mm 63.0 W/m2 SCT
07:33 -9.9 °C -11.3 °C 34405.1 hPa Calm     84 % 0 mm 76.0 W/m2 FEW
07:38 -9.7 °C -11.2 °C 34418.7 hPa Calm     84 % 0 mm 86.0 W/m2 FEW
07:43 -9.6 °C -11.2 °C 34418.7 hPa Calm     83 % 0 mm 107.0 W/m2 CLR
07:48 -9.5 °C -11.1 °C 34418.7 hPa Calm     83 % 0 mm 134.0 W/m2 CLR
07:53 -9.3 °C -11.1 °C 34405.1 hPa Calm     81 % 0 mm 192.0 W/m2 CLR
07:58 -9.2 °C -11.2 °C 34405.1 hPa Calm     80 % 0 mm 204.0 W/m2 CLR
08:03 -9.2 °C -11.1 °C 34405.1 hPa Calm     80 % 0 mm 188.0 W/m2 CLR
08:08 -9.1 °C -10.9 °C 34405.1 hPa Calm     80 % 0 mm 167.0 W/m2 CLR
08:14 -8.8 °C -10.9 °C 34405.1 hPa Calm     79 % 0 mm 88.0 W/m2 CLR
08:19 -8.7 °C -10.8 °C 34405.1 hPa Calm     79 % 0 mm 77.0 W/m2 CLR
08:24 -8.7 °C -10.8 °C 34405.1 hPa Calm     78 % 0 mm 102.0 W/m2 CLR
08:28 -8.6 °C -10.9 °C 34405.1 hPa SE 12.9 km/h 12.9 km/h 77 % 0 mm 265.0 W/m2 CLR
08:33 -8.5 °C -10.9 °C 34405.1 hPa SE 11.9 km/h 11.9 km/h 76 % 0 mm 272.0 W/m2 CLR
08:38 -8.3 °C -10.8 °C 34405.1 hPa Calm     75 % 0 mm 278.0 W/m2 CLR
08:39 -8.3 °C -10.7 °C 34405.1 hPa Calm     75 % 0 mm 278.0 W/m2 CLR
08:44 -8.1 °C -10.7 °C 34405.1 hPa Calm     74 % 0 mm 325.0 W/m2 CLR
08:49 -7.9 °C -10.5 °C 34405.1 hPa Calm     74 % 0 mm 381.0 W/m2 CLR
08:54 -7.7 °C -10.5 °C 34405.1 hPa Calm     72 % 0 mm 439.0 W/m2 CLR
08:59 -7.4 °C -10.6 °C 34405.1 hPa Calm     70 % 0 mm 346.0 W/m2 CLR
09:04 -7.3 °C -10.6 °C 34405.1 hPa ESE 7.7 km/h 7.7 km/h 69 % 0 mm 192.0 W/m2 CLR
09:09 -7.3 °C -10.6 °C 34405.1 hPa Calm     69 % 0 mm 169.0 W/m2 CLR
09:10 -7.3 °C -10.6 °C 34405.1 hPa Calm     69 % 0 mm 165.0 W/m2 CLR
09:15 -7.4 °C -10.6 °C 34405.1 hPa SSW 7.7 km/h 7.7 km/h 69 % 0 mm 165.0 W/m2 CLR
09:20 -7.3 °C -10.6 °C 34405.1 hPa Calm     69 % 0 mm 174.0 W/m2 CLR
09:25 -7.3 °C -10.7 °C 34405.1 hPa Calm     68 % 0 mm 199.0 W/m2 CLR
09:30 -7.3 °C -10.6 °C 34405.1 hPa Calm     68 % 0 mm 218.0 W/m2 CLR
09:35 -7.2 °C -10.6 °C 34405.1 hPa Calm     68 % 0 mm 206.0 W/m2 CLR
09:40 -7.2 °C -10.7 °C 34405.1 hPa Calm     67 % 0 mm 223.0 W/m2 CLR
09:45 -7.1 °C -10.6 °C 34405.1 hPa Calm     67 % 0 mm 276.0 W/m2 CLR
09:50 -6.9 °C -10.7 °C 34405.1 hPa Calm     65 % 0 mm 132.0 W/m2 CLR
09:55 -6.7 °C -10.4 °C 34395 hPa Calm     66 % 0 mm 541.0 W/m2 CLR
10:00 -6.4 °C -10.1 °C 34405.1 hPa Calm     66 % 0 mm 555.0 W/m2 CLR
10:05 -6.2 °C -10.3 °C 34405.1 hPa Calm     63 % 0 mm 559.0 W/m2 CLR
10:10 -6 °C -10.2 °C 34405.1 hPa Calm     62 % 0 mm 575.0 W/m2 CLR
10:15 -6 °C -10.1 °C 34405.1 hPa Calm     63 % 0 mm 599.0 W/m2 CLR
10:20 -5.8 °C -10 °C 34405.1 hPa Calm     62 % 0 mm 629.0 W/m2 CLR
10:25 -5.5 °C -10.2 °C 34395 hPa Calm     59 % 0 mm 666.0 W/m2 CLR
10:30 -5.4 °C -10.2 °C 34395 hPa Calm     58 % 0 mm 643.0 W/m2 CLR
10:35 -5.3 °C -10.3 °C 34395 hPa ENE 6 km/h 6 km/h 57 % 0 mm 645.0 W/m2 CLR
10:40 -5.2 °C -10.2 °C 34395 hPa Calm   0.3 km/h 57 % 0 mm 657.0 W/m2 CLR
10:45 -5.1 °C -10.2 °C 34395 hPa ENE 11.9 km/h 11.9 km/h 56 % 0 mm 670.0 W/m2 CLR
10:50 -5.1 °C -10.2 °C 34395 hPa ENE 3.1 km/h 3.1 km/h 56 % 0 mm 694.0 W/m2 CLR
10:55 -4.9 °C -10.2 °C 34395 hPa ESE 6 km/h 6 km/h 55 % 0 mm 698.0 W/m2 CLR
11:00 -4.8 °C -10.4 °C 34395 hPa East 9 km/h 9 km/h 53 % 0 mm 717.0 W/m2 CLR
11:01 -4.8 °C -10.4 °C 34395 hPa East 9 km/h 9 km/h 53 % 0 mm 717.0 W/m2 CLR
11:06 -4.8 °C -10.4 °C 34395 hPa NNE 11.9 km/h 11.9 km/h 53 % 0 mm 719.0 W/m2 CLR
11:11 -4.7 °C -10.4 °C 34395 hPa NE 9 km/h 9 km/h 52 % 0 mm 737.0 W/m2 CLR
11:16 -4.5 °C -10.7 °C 34395 hPa Calm     50 % 0 mm 763.0 W/m2 CLR
11:21 -4.4 °C -10.6 °C 34395 hPa ENE 10.3 km/h 10.3 km/h 50 % 0 mm 768.0 W/m2 CLR
11:26 -4.3 °C -10.6 °C 34395 hPa Calm     49 % 0 mm 773.0 W/m2 CLR
11:31 -4.1 °C -10.3 °C 34395 hPa ENE 3.1 km/h 3.1 km/h 50 % 0 mm 779.0 W/m2 CLR
11:36 -3.9 °C -10.6 °C 34395 hPa Calm     47 % 0 mm 780.0 W/m2 CLR
11:41 -3.7 °C -10.3 °C 34395 hPa NE 9 km/h 9 km/h 48 % 0 mm 788.0 W/m2 CLR
11:46 -3.7 °C -10.4 °C 34395 hPa NE 11.9 km/h 11.9 km/h 47 % 0 mm 798.0 W/m2 CLR
11:51 -3.7 °C -10.4 °C 34395 hPa ENE 11.9 km/h 11.9 km/h 47 % 0 mm 810.0 W/m2 CLR
11:56 -3.6 °C -10.4 °C 34395 hPa NE 10.3 km/h 10.3 km/h 47 % 0 mm 817.0 W/m2 CLR
12:01 -3.5 °C -10.4 °C 34395 hPa Calm     46 % 0 mm 826.0 W/m2 CLR
12:06 -3.4 °C -10.4 °C 34384.8 hPa NE 20.9 km/h 20.9 km/h 46 % 0 mm 833.0 W/m2 CLR
12:11 -3.5 °C -10.6 °C 34384.8 hPa NNE 3.1 km/h 3.1 km/h 45 % 0 mm 842.0 W/m2 CLR
12:16 -3.4 °C -10.4 °C 34395 hPa ENE 9 km/h 9 km/h 46 % 0 mm 847.0 W/m2 CLR
12:21 -3.4 °C -10.5 °C 34384.8 hPa East 18.2 km/h 18.2 km/h 45 % 0 mm 854.0 W/m2 CLR
12:26 -3.3 °C -10.4 °C 34384.8 hPa ENE 17.9 km/h 17.9 km/h 45 % 0 mm 865.0 W/m2 CLR
12:31 -3.2 °C -10.6 °C 34384.8 hPa ENE 20.9 km/h 20.9 km/h 44 % 0 mm 870.0 W/m2 CLR
12:36 -3.2 °C -10.3 °C 34384.8 hPa ENE 23.8 km/h 23.8 km/h 45 % 0 mm 877.0 W/m2 CLR
12:37 -3.1 °C -10.3 °C 34384.8 hPa ENE 23.8 km/h 23.8 km/h 45 % 0 mm 879.0 W/m2 CLR
12:42 -3.1 °C -10.2 °C 34371.3 hPa East 26.9 km/h 26.9 km/h 45 % 0 mm 882.0 W/m2 CLR
12:47 -3 °C -10.2 °C 34371.3 hPa NE 20.9 km/h 20.9 km/h 45 % 0 mm 886.0 W/m2 CLR
12:52 -2.8 °C -10 °C 34371.3 hPa SE 9 km/h 9 km/h 45 % 0 mm 895.0 W/m2 CLR
12:57 -2.6 °C -9.8 °C 34371.3 hPa ENE 15 km/h 15 km/h 45 % 0 mm 895.0 W/m2 CLR
13:02 -2.4 °C -9.8 °C 34361.1 hPa ESE 15.6 km/h 15.6 km/h 44 % 0 mm 905.0 W/m2 CLR
13:07 -2.4 °C -10.4 °C 34361.1 hPa ESE 10.3 km/h 10.3 km/h 41 % 0 mm 907.0 W/m2 CLR
13:12 -2.5 °C -10.5 °C 34361.1 hPa NE 6 km/h   41 % 0 mm 909.0 W/m2 CLR
13:17 -2.4 °C -10.2 °C 34361.1 hPa East 11.9 km/h 11.9 km/h 42 % 0 mm 911.0 W/m2 CLR
13:22 -2.3 °C -10.3 °C 34361.1 hPa East 15 km/h 15 km/h 41 % 0 mm 912.0 W/m2 CLR
13:27 -2.3 °C -10.3 °C 34361.1 hPa NE 15 km/h 15 km/h 41 % 0 mm 919.0 W/m2 CLR
13:32 -2.3 °C -10.3 °C 34361.1 hPa ENE 29.8 km/h 29.8 km/h 41 % 0 mm 919.0 W/m2 CLR
13:37 -2.3 °C -10.2 °C 34361.1 hPa ENE 29.8 km/h 29.8 km/h 42 % 0 mm 919.0 W/m2 CLR
13:42 -2.3 °C -10.3 °C 34361.1 hPa East 20.8 km/h 20.8 km/h 41 % 0 mm 925.0 W/m2 CLR
13:47 -2.4 °C -10.1 °C 34361.1 hPa ESE 20.9 km/h 20.9 km/h 43 % 0 mm 926.0 W/m2 CLR
13:52 -2.3 °C -10.4 °C 34347.6 hPa ESE 17.9 km/h 17.9 km/h 41 % 0 mm 925.0 W/m2 CLR
13:57 -2.3 °C -9.9 °C 34347.6 hPa ENE 20.8 km/h 20.8 km/h 43 % 0 mm 930.0 W/m2 CLR
14:02 -2.3 °C -10.1 °C 34347.6 hPa ENE 35.7 km/h 35.7 km/h 42 % 0 mm 930.0 W/m2 CLR
14:07 -2.2 °C -9.8 °C 34347.6 hPa ENE 20.9 km/h 20.9 km/h 43 % 0 mm 928.0 W/m2 CLR
14:12 -2.1 °C -10.4 °C 34347.6 hPa East 29.8 km/h 29.8 km/h 40 % 0 mm 930.0 W/m2 CLR
14:17 -2.2 °C -10.2 °C 34337.4 hPa SE 26.9 km/h 26.9 km/h 41 % 0 mm 923.0 W/m2 CLR
14:22 -2.2 °C -10.7 °C 34337.4 hPa ENE 20.9 km/h 20.9 km/h 39 % 0 mm 926.0 W/m2 CLR
14:27 -2.2 °C -10.7 °C 34337.4 hPa North 23.8 km/h 23.8 km/h 39 % 0 mm 921.0 W/m2 CLR
14:32 -2.1 °C -10.3 °C 34337.4 hPa ENE 20.8 km/h 20.8 km/h 40 % 0 mm 928.0 W/m2 CLR
14:37 -2.1 °C -10.8 °C 34337.4 hPa East 20.9 km/h 20.9 km/h 38 % 0 mm 923.0 W/m2 CLR
14:42 -2.2 °C -10.9 °C 34337.4 hPa East 29.8 km/h 29.8 km/h 38 % 0 mm 918.0 W/m2 CLR
14:47 -2.1 °C -11 °C 34337.4 hPa ENE 20.9 km/h 20.9 km/h 37 % 0 mm 916.0 W/m2 CLR
14:52 -1.9 °C -10.9 °C 34327.3 hPa ESE 31.1 km/h 31.1 km/h 37 % 0 mm 911.0 W/m2 CLR
14:57 -2 °C -10.9 °C 34337.4 hPa East 9 km/h 9 km/h 37 % 0 mm 905.0 W/m2 CLR
15:02 -1.9 °C -11.1 °C 34337.4 hPa NE 29.8 km/h 29.8 km/h 36 % 0 mm 900.0 W/m2 CLR
15:07 -1.8 °C -10.8 °C 34337.4 hPa East 38.8 km/h 38.8 km/h 37 % 0 mm 893.0 W/m2 CLR
15:12 -1.7 °C -10.4 °C 34337.4 hPa ENE 31.1 km/h 31.1 km/h 38 % 0 mm 886.0 W/m2 CLR
15:17 -1.7 °C -10.7 °C 34327.3 hPa North 17.9 km/h 17.9 km/h 37 % 0 mm 879.0 W/m2 CLR
15:22 -1.7 °C -10.9 °C 34327.3 hPa NE 35.7 km/h 35.7 km/h 36 % 0 mm 874.0 W/m2 CLR
15:23 -1.7 °C -10.9 °C 34327.3 hPa NE 28.5 km/h 28.5 km/h 36 % 0 mm 874.0 W/m2 CLR
15:28 -1.7 °C -10.9 °C 34327.3 hPa North 17.9 km/h 17.9 km/h 36 % 0 mm 865.0 W/m2 CLR
15:33 -1.6 °C -10.8 °C 34327.3 hPa NNE 15 km/h 15 km/h 36 % 0 mm 860.0 W/m2 CLR
15:38 -1.7 °C -10.9 °C 34327.3 hPa NE 23.8 km/h 23.8 km/h 36 % 0 mm 851.0 W/m2 CLR
15:43 -1.8 °C -11.2 °C 34327.3 hPa NNE 15 km/h 15 km/h 35 % 0 mm 846.0 W/m2 CLR
15:48 -1.7 °C -11.3 °C 34327.3 hPa East 20.9 km/h 20.9 km/h 34 % 0 mm 837.0 W/m2 CLR
15:53 -1.7 °C -10.9 °C 34327.3 hPa NE 17.9 km/h 17.9 km/h 36 % 0 mm 828.0 W/m2 CLR
15:58 -1.6 °C -10.9 °C 34327.3 hPa NE 20.9 km/h 20.9 km/h 36 % 0 mm 819.0 W/m2 CLR
16:03 -1.6 °C -10.8 °C 34313.7 hPa NE 23.8 km/h 23.8 km/h 36 % 0 mm 809.0 W/m2 CLR
16:08 -1.3 °C -10.6 °C 34313.7 hPa NE 9 km/h 9 km/h 36 % 0 mm 796.0 W/m2 CLR
16:13 -1.2 °C -10.7 °C 34313.7 hPa NE 23.8 km/h 23.8 km/h 35 % 0 mm 788.0 W/m2 CLR
16:18 -1.4 °C -10.7 °C 34313.7 hPa ENE 15.6 km/h 15.6 km/h 36 % 0 mm 779.0 W/m2 CLR
16:23 -1.4 °C -10.4 °C 34313.7 hPa NE 38.8 km/h 38.8 km/h 37 % 0 mm 765.0 W/m2 CLR
16:28 -1.6 °C -10.6 °C 34313.7 hPa East 23.8 km/h 23.8 km/h 37 % 0 mm 756.0 W/m2 CLR
16:33 -1.7 °C -10.4 °C 34313.7 hPa ENE 6 km/h 6 km/h 38 % 0 mm 745.0 W/m2 CLR
16:38 -1.7 °C -10.7 °C 34313.7 hPa NE 20.8 km/h 20.8 km/h 37 % 0 mm 735.0 W/m2 CLR
16:43 -1.7 °C -10.9 °C 34313.7 hPa NE 38.8 km/h 38.8 km/h 36 % 0 mm 722.0 W/m2 CLR
16:48 -1.7 °C -10.7 °C 34313.7 hPa NE 15 km/h 15 km/h 37 % 0 mm 710.0 W/m2 CLR
16:53 -1.6 °C -10.8 °C 34313.7 hPa ENE 33.6 km/h 33.6 km/h 36 % 0 mm 701.0 W/m2 CLR
16:58 -1.5 °C -10.7 °C 34313.7 hPa ENE 17.9 km/h 17.9 km/h 36 % 0 mm 689.0 W/m2 CLR
17:03 -1.6 °C -10.5 °C 34313.7 hPa ENE 23.8 km/h 23.8 km/h 37 % 0 mm 675.0 W/m2 CLR
17:08 -1.7 °C -10.9 °C 34313.7 hPa East 17.9 km/h 17.9 km/h 36 % 0 mm 659.0 W/m2 CLR
17:13 -1.8 °C -10.8 °C 34303.6 hPa North 17.9 km/h 17.9 km/h 37 % 0 mm 645.0 W/m2 CLR
17:18 -1.7 °C -10.4 °C 34303.6 hPa NE 20.9 km/h 20.9 km/h 38 % 0 mm 633.0 W/m2 CLR
17:23 -1.6 °C -10.6 °C 34313.7 hPa NE 17.9 km/h 17.9 km/h 37 % 0 mm 624.0 W/m2 CLR
17:28 -1.4 °C -10.7 °C 34303.6 hPa North 11.9 km/h 11.9 km/h 36 % 0 mm 610.0 W/m2 CLR
17:33 -1.4 °C -10.7 °C 34313.7 hPa ENE 11.9 km/h 11.9 km/h 36 % 0 mm 594.0 W/m2 CLR
17:38 -1.3 °C -10.4 °C 34303.6 hPa ESE 6 km/h 6 km/h 37 % 0 mm 580.0 W/m2 CLR
17:43 -1.4 °C -10.4 °C 34303.6 hPa East 15.6 km/h 15.6 km/h 37 % 0 mm 568.0 W/m2 CLR
17:48 -1.6 °C -10.6 °C 34303.6 hPa ENE 20.8 km/h 20.8 km/h 37 % 0 mm 548.0 W/m2 CLR
17:53 -1.8 °C -10.8 °C 34303.6 hPa East 15 km/h 15 km/h 37 % 0 mm 534.0 W/m2 CLR
17:58 -1.9 °C -10.9 °C 34303.6 hPa Calm     37 % 0 mm 522.0 W/m2 CLR
18:03 -1.8 °C -10.8 °C 34303.6 hPa East 11.9 km/h 11.9 km/h 37 % 0 mm 510.0 W/m2 CLR
18:08 -1.7 °C -10.4 °C 34303.6 hPa ESE 3.1 km/h 3.1 km/h 38 % 0 mm 468.0 W/m2 CLR
18:13 -1.6 °C -10.6 °C 34303.6 hPa ESE 9 km/h 9 km/h 37 % 0 mm 439.0 W/m2 CLR
18:18 -1.7 °C -10.9 °C 34303.6 hPa Calm     36 % 0 mm 459.0 W/m2 CLR
18:23 -1.7 °C -10.4 °C 34303.6 hPa East 15.6 km/h 15.6 km/h 38 % 0 mm 446.0 W/m2 CLR
18:28 -1.9 °C -10.4 °C 34303.6 hPa ESE 11.9 km/h 11.9 km/h 39 % 0 mm 422.0 W/m2 CLR
18:33 -2.1 °C -10.4 °C 34303.6 hPa ESE 17.9 km/h 17.9 km/h 40 % 0 mm 404.0 W/m2 CLR
18:38 -2.1 °C -10.4 °C 34303.6 hPa East 9 km/h 9 km/h 40 % 0 mm 396.0 W/m2 CLR
18:43 -2.1 °C -10.8 °C 34303.6 hPa ESE 11.9 km/h 11.9 km/h 38 % 0 mm 380.0 W/m2 CLR
18:48 -2.2 °C -11.1 °C 34303.6 hPa ESE 11.9 km/h 11.9 km/h 37 % 0 mm 364.0 W/m2 CLR
18:53 -2.3 °C -10.6 °C 34303.6 hPa ESE 11.9 km/h 11.9 km/h 40 % 0 mm 348.0 W/m2 CLR
18:58 -2.3 °C -10.6 °C 34303.6 hPa ESE 15 km/h 15 km/h 40 % 0 mm 334.0 W/m2 CLR
19:03 -2.3 °C -10.8 °C 34303.6 hPa East 20.9 km/h 20.9 km/h 39 % 0 mm 322.0 W/m2 CLR
19:08 -2.4 °C -10.4 °C 34303.6 hPa East 20.9 km/h 20.9 km/h 41 % 0 mm 304.0 W/m2 CLR
19:13 -2.6 °C -10.4 °C 34303.6 hPa East 17.9 km/h 17.9 km/h 42 % 0 mm 287.0 W/m2 CLR
19:18 -2.6 °C -10.4 °C 34303.6 hPa ESE 20.9 km/h 20.9 km/h 42 % 0 mm 271.0 W/m2 CLR
19:23 -2.7 °C -10.4 °C 34303.6 hPa East 20.9 km/h 20.9 km/h 42 % 0 mm 253.0 W/m2 CLR
19:28 -2.8 °C -10.6 °C 34313.7 hPa East 17.9 km/h 17.9 km/h 42 % 0 mm 237.0 W/m2 CLR
19:33 -2.9 °C -10.7 °C 34313.7 hPa East 20.9 km/h 20.9 km/h 42 % 0 mm 223.0 W/m2 CLR
19:38 -2.9 °C -10.7 °C 34313.7 hPa East 11.9 km/h 11.9 km/h 42 % 0 mm 207.0 W/m2 CLR
19:43 -3 °C -10.8 °C 34313.7 hPa ESE 17.9 km/h 17.9 km/h 42 % 0 mm 190.0 W/m2 CLR
19:49 -3.2 °C -10.9 °C 34327.3 hPa East 18.2 km/h 18.2 km/h 42 % 0 mm 174.0 W/m2 CLR
19:54 -3.4 °C -10.9 °C 34327.3 hPa ENE 11.9 km/h 11.9 km/h 43 % 0 mm 156.0 W/m2 CLR
19:59 -3.6 °C -11.1 °C 34327.3 hPa ESE 15.6 km/h 15.6 km/h 43 % 0 mm 141.0 W/m2 CLR
20:04 -3.7 °C -11 °C 34327.3 hPa East 6 km/h 6 km/h 44 % 0 mm 127.0 W/m2 CLR
20:09 -3.8 °C -11.3 °C 34327.3 hPa ENE 15 km/h 15 km/h 43 % 0 mm 111.0 W/m2 CLR
20:14 -3.9 °C -11.2 °C 34327.3 hPa East 20.9 km/h 20.9 km/h 44 % 0 mm 93.0 W/m2 CLR
20:19 -4.1 °C -11.3 °C 34327.3 hPa SE 10.3 km/h 10.3 km/h 44 % 0 mm 81.0 W/m2 FEW
20:24 -4.2 °C -11.4 °C 34327.3 hPa SE 20.9 km/h 20.9 km/h 44 % 0 mm 70.0 W/m2 FEW
20:25 -4.2 °C -11.3 °C 34327.3 hPa East 20.9 km/h 20.9 km/h 45 % 0 mm 67.0 W/m2 FEW
20:29 -4.3 °C -11.3 °C 34327.3 hPa ESE 17.9 km/h 17.9 km/h 45 % 0 mm 62.0 W/m2 SCT
20:30 -4.3 °C -11.3 °C 34327.3 hPa East 12.9 km/h 12.9 km/h 45 % 0 mm 56.0 W/m2 SCT
20:35 -4.3 °C -11.3 °C 34337.4 hPa ESE 12.9 km/h 14.5 km/h 45 % 0 mm 42.0 W/m2 SCT
20:41 -4.4 °C -11.4 °C 34337.4 hPa East 15 km/h 15 km/h 45 % 0 mm 37.0 W/m2 BKN
20:46 -4.5 °C -11.5 °C 34337.4 hPa ESE 15.6 km/h 15.6 km/h 45 % 0 mm 28.0 W/m2 BKN
20:51 -4.6 °C -11.4 °C 34337.4 hPa East 11.9 km/h 11.9 km/h 46 % 0 mm 23.0 W/m2 BKN
20:56 -4.7 °C -11.3 °C 34337.4 hPa ESE 23.8 km/h 23.8 km/h 47 % 0 mm 18.0 W/m2 BKN
21:01 -4.8 °C -11.4 °C 34337.4 hPa ESE 15 km/h 15 km/h 47 % 0 mm 14.0 W/m2 BKN
21:06 -4.9 °C -11.5 °C 34347.6 hPa ESE 10.3 km/h 10.3 km/h 47 % 0 mm 11.0 W/m2 BKN
21:11 -4.9 °C -11.4 °C 34347.6 hPa ESE 11.9 km/h 11.9 km/h 48 % 0 mm 7.0 W/m2 BKN
21:16 -5.1 °C -11.5 °C 34347.6 hPa ESE 9 km/h 9 km/h 48 % 0 mm 5.0 W/m2 OVC
21:21 -5.1 °C -11.6 °C 34347.6 hPa ESE 20.9 km/h 20.9 km/h 48 % 0 mm 0.0 W/m2 OVC
21:26 -5.3 °C -11.6 °C 34347.6 hPa East 20.9 km/h 20.9 km/h 49 % 0 mm 0.0 W/m2 OVC
21:31 -5.3 °C -11.6 °C 34347.6 hPa East 10.3 km/h 10.3 km/h 49 % 0 mm 0.0 W/m2 CLR
21:36 -5.4 °C -11.5 °C 34361.1 hPa Calm     50 % 0 mm 0.0 W/m2 CLR
21:41 -5.5 °C -11.6 °C 34361.1 hPa East 9 km/h 9 km/h 50 % 0 mm 0.0 W/m2 CLR
21:46 -5.7 °C -11.6 °C 34361.1 hPa Calm     51 % 0 mm 0.0 W/m2 CLR
21:51 -5.7 °C -11.4 °C 34371.3 hPa Calm     52 % 0 mm 0.0 W/m2 CLR
21:56 -5.8 °C -11.5 °C 34371.3 hPa ENE 12.9 km/h 12.9 km/h 52 % 0 mm 0.0 W/m2 CLR
22:01 -5.9 °C -11.5 °C 34371.3 hPa ENE 9 km/h 9 km/h 53 % 0 mm 0.0 W/m2 CLR
22:06 -6 °C -11.5 °C 34371.3 hPa Calm     53 % 0 mm 0.0 W/m2 CLR
22:11 -6.1 °C -11.6 °C 34384.8 hPa Calm     53 % 0 mm 0.0 W/m2 CLR
22:16 -6.1 °C -11.5 °C 34384.8 hPa ESE 9 km/h 9 km/h 54 % 0 mm 0.0 W/m2 CLR
22:21 -6.2 °C -11.6 °C 34395 hPa East 12.9 km/h 12.9 km/h 54 % 0 mm 0.0 W/m2 CLR
22:26 -6.2 °C -11.4 °C 34395 hPa ENE 15 km/h 15 km/h 55 % 0 mm 0.0 W/m2 CLR
22:31 -6.4 °C -11.4 °C 34395 hPa Calm     56 % 0 mm 0.0 W/m2 CLR
22:36 -6.4 °C -11.3 °C 34395 hPa Calm     57 % 0 mm 0.0 W/m2 CLR
22:41 -6.6 °C -11.4 °C 34405.1 hPa Calm     57 % 0 mm 0.0 W/m2 CLR
22:46 -6.7 °C -11.4 °C 34405.1 hPa Calm     58 % 0 mm 0.0 W/m2 CLR
22:51 -6.8 °C -11.3 °C 34405.1 hPa Calm     59 % 0 mm 0.0 W/m2 CLR
22:56 -6.8 °C -11.4 °C 34405.1 hPa Calm     59 % 0 mm 0.0 W/m2 CLR
23:02 -6.9 °C -11.3 °C 34405.1 hPa Calm     60 % 0 mm 0.0 W/m2 CLR
23:03 -6.9 °C -11.3 °C 34405.1 hPa Calm     60 % 0 mm 0.0 W/m2 CLR
23:08 -6.9 °C -11.2 °C 34405.1 hPa Calm     61 % 0 mm 0.0 W/m2 CLR
23:13 -7 °C -11.3 °C 34405.1 hPa SE 11.9 km/h 11.9 km/h 61 % 0 mm 0.0 W/m2 CLR
23:18 -7.1 °C -11.2 °C 34405.1 hPa Calm     62 % 0 mm 0.0 W/m2 CLR
23:23 -7.1 °C -11.2 °C 34405.1 hPa Calm     62 % 0 mm 0.0 W/m2 CLR
23:28 -7.1 °C -11.3 °C 34418.7 hPa Calm     62 % 0 mm 0.0 W/m2 CLR
23:33 -7.2 °C -11.2 °C 34418.7 hPa Calm     63 % 0 mm 0.0 W/m2 CLR
23:38 -7.3 °C -11.3 °C 34418.7 hPa Calm     63 % 0 mm 0.0 W/m2 CLR
23:43 -7.3 °C -11.2 °C 34418.7 hPa Calm     64 % 0 mm 0.0 W/m2 CLR
23:48 -7.3 °C -11.2 °C 34418.7 hPa SE 9 km/h 9 km/h 64 % 0 mm 0.0 W/m2 CLR
23:53 -7.3 °C -11.1 °C 34418.7 hPa ESE 9 km/h 9 km/h 65 % 0 mm 0.0 W/m2 CLR
23:58 -7.4 °C -11 °C 34418.7 hPa Calm     66 % 0 mm 0.0 W/m2 CLR
Lo Temps de Massalio
Compliments of Weather Underground - 1.25 mb